Location: Newark
(25.4800°N, 85.7200°E)
Time: 09:39:20
(UTC+00:00)

Vanguard 1 Rocket - Pass Details

Date: 28 August 2019
Orbit: 650 x 4226 km, 34.3° (Epoch: 20 October)

Event Time Altitude Azimuth Distance (km) Brightness Sun altitude
Rises 16:19:28 0° 229° (SW) 5,279 11.3 -44.5°
Enters shadow 16:22:17 - 226° (SW) 4,274 10.8 -44.9°
Reaches altitude 10° 16:23:49 10° 224° (SW) 3,722 - -45.2°
Maximum altitude 16:31:52 47° 153° (SSE) 1,285 - -46.3°
Drops below altitude 10° 16:36:46 10° 80° (E) 2,280 - -47.0°
Sets 16:38:50 0° 73° (ENE) 3,068 - -47.3°
